Regional Weather Roundup
Issued by NWS

Current Version | Previous Version | Text Only | Print | Product List | Glossary On
Versions: 1 2 3 4 5 6 7 8 9 10 11 12 13 14 15 16 17 18 19 20 21 22 23 24 25 26 27 28 29 30 31 32 33 34 35 36 37 38 39 40 41 42 43 44 45 46 47 48 49 50
000
ASCA42 TJSJ 200210
RWRPR
PUERTO RICO/U.S. VIRGIN ISLANDS HOURLY WEATHER ROUNDUP
NATIONAL WEATHER SERVICE SAN JUAN PR
1000 PM AST WED SEP 19 2018

PRZ001>002-007>008-010-200300-
PUERTO RICO

CITY           SKY/WX    TMP DP  RH WIND       PRES   REMARKS
SAN JUAN LMM   CLEAR     82  75  78 E9        30.00R
AGUADILLA      CLEAR     81 N/A N/A E7        30.01R
CEIBA          MOCLDY    82  79  89 CALM      30.02R HX  93
$$

VIZ001>002-200300-
U.S. VIRGIN ISLANDS

CITY           SKY/WX    TMP DP  RH WIND       PRES   REMARKS
CHARLOTTE AMA  MOCLDY    84  75  74 SE14      29.99R HX  92
CHRISTIANSTED  CLOUDY    82  81  94 E8        30.00S HX  95
$$

HOURLY WEATHER ROUNDUP FOR THE NEWS MEDIA

CITY           SKY/WX    TMP DP  RH WIND       PRES   REMARKS
ORLANDO        FAIR      82  75  79 CALM      29.99R
NEW YORK       CLOUDY    70  67  90 E9        30.04R
NEWARK         MOCLDY    71  66  84 SE8       30.03R
CHICAGO        FAIR      67  64  90 NE8       30.00R
HARTFORD       FAIR      60  57  89 NE9       30.05R
BOSTON         CLOUDY    63  55  75 NE12      30.09R
DALLAS         PTCLDY    91  71  51 S9        29.88R HX  97
PHILADELPHIA   FAIR      71  68  90 E6        30.02R
LOS ANGELES    PTCLDY    68  62  81 W13       29.72R
WASHINGTON DC  FAIR      70  66  87 CALM      30.03R


USA.gov is the U.S. government's official web portal to all federal, state and local government web resources and services.